Year,Month,Day,Hour,Minute,Value (Times are PST for temperature in C)
2011,10,19,00,00,9.10
2011,10,19,00,01,9.10
2011,10,19,00,02,9.10
2011,10,19,00,03,9.10
2011,10,19,00,04,9.10
2011,10,19,00,05,9.10
2011,10,19,00,06,9.10
2011,10,19,00,07,9.20
2011,10,19,00,08,9.20
2011,10,19,00,09,9.20
2011,10,19,00,10,9.20
2011,10,19,00,11,9.10
2011,10,19,00,12,9.10
2011,10,19,00,13,9.10
2011,10,19,00,14,9.10
2011,10,19,00,15,9.10
2011,10,19,00,16,9.10
2011,10,19,00,17,9.10
2011,10,19,00,18,9.10
2011,10,19,00,19,9.10
2011,10,19,00,20,9.00
2011,10,19,00,21,9.00
2011,10,19,00,22,9.00
2011,10,19,00,23,9.00
2011,10,19,00,24,9.00
2011,10,19,00,25,9.00
2011,10,19,00,26,9.00
2011,10,19,00,27,9.00
2011,10,19,00,28,9.00
2011,10,19,00,29,8.90
2011,10,19,00,30,8.90
2011,10,19,00,31,8.90
2011,10,19,00,32,8.90
2011,10,19,00,33,8.90
2011,10,19,00,34,8.90
2011,10,19,00,35,8.90
2011,10,19,00,36,8.90
2011,10,19,00,37,8.90
2011,10,19,00,38,8.80
2011,10,19,00,39,8.80
2011,10,19,00,40,8.80
2011,10,19,00,41,8.80
2011,10,19,00,42,8.80
2011,10,19,00,43,8.80
2011,10,19,00,44,8.80
2011,10,19,00,45,8.80
2011,10,19,00,46,8.80
2011,10,19,00,47,8.80
2011,10,19,00,48,8.80
2011,10,19,00,49,8.80
2011,10,19,00,50,8.70
2011,10,19,00,51,8.70
2011,10,19,00,52,8.70
2011,10,19,00,53,8.70
2011,10,19,00,54,8.70
2011,10,19,00,55,8.70
2011,10,19,00,56,8.70
2011,10,19,00,57,8.70
2011,10,19,00,58,8.70
2011,10,19,00,59,8.60
2011,10,19,01,00,8.60
2011,10,19,01,01,8.60
2011,10,19,01,02,8.60
2011,10,19,01,03,8.60
2011,10,19,01,04,8.60
2011,10,19,01,05,8.60
2011,10,19,01,06,8.60
2011,10,19,01,07,8.60
2011,10,19,01,08,8.60
2011,10,19,01,09,8.60
2011,10,19,01,10,8.60
2011,10,19,01,11,8.50
2011,10,19,01,12,8.50
2011,10,19,01,13,8.50
2011,10,19,01,14,8.50
2011,10,19,01,15,8.50
2011,10,19,01,16,8.50
2011,10,19,01,17,8.40
2011,10,19,01,18,8.40
2011,10,19,01,19,8.40
2011,10,19,01,20,8.40
2011,10,19,01,21,8.40
2011,10,19,01,22,8.40
2011,10,19,01,23,8.40
2011,10,19,01,24,8.40
2011,10,19,01,25,8.40
2011,10,19,01,26,8.40
2011,10,19,01,27,8.40
2011,10,19,01,28,8.40
2011,10,19,01,29,8.40
2011,10,19,01,30,8.40
2011,10,19,01,31,8.40
2011,10,19,01,32,8.40
2011,10,19,01,33,8.40
2011,10,19,01,34,8.40
2011,10,19,01,35,8.40
2011,10,19,01,36,8.30
2011,10,19,01,37,8.30
2011,10,19,01,38,8.30
2011,10,19,01,39,8.30
2011,10,19,01,40,8.30
2011,10,19,01,41,8.30
2011,10,19,01,42,8.30
2011,10,19,01,43,8.30
2011,10,19,01,44,8.30
2011,10,19,01,45,8.30
2011,10,19,01,46,8.30
2011,10,19,01,47,8.20
2011,10,19,01,48,8.20
2011,10,19,01,49,8.30
2011,10,19,01,50,8.30
2011,10,19,01,51,8.30
2011,10,19,01,52,8.30
2011,10,19,01,53,8.30
2011,10,19,01,54,8.30
2011,10,19,01,55,8.30
2011,10,19,01,56,8.30
2011,10,19,01,57,8.30
2011,10,19,01,58,8.30
2011,10,19,01,59,8.20
2011,10,19,02,00,8.20
2011,10,19,02,01,8.20
2011,10,19,02,02,8.20
2011,10,19,02,03,8.20
2011,10,19,02,04,8.20
2011,10,19,02,05,8.20
2011,10,19,02,06,8.20
2011,10,19,02,07,8.20
2011,10,19,02,08,8.10
2011,10,19,02,09,8.10
2011,10,19,02,10,8.10
2011,10,19,02,11,8.10
2011,10,19,02,12,8.10
2011,10,19,02,13,8.10
2011,10,19,02,14,8.10
2011,10,19,02,15,8.10
2011,10,19,02,16,8.10
2011,10,19,02,17,8.10
2011,10,19,02,18,8.10
2011,10,19,02,19,8.00
2011,10,19,02,20,8.00
2011,10,19,02,21,8.10
2011,10,19,02,22,8.10
2011,10,19,02,23,8.10
2011,10,19,02,24,8.10
2011,10,19,02,25,8.10
2011,10,19,02,26,8.10
2011,10,19,02,27,8.20
2011,10,19,02,28,8.20
2011,10,19,02,29,8.20
2011,10,19,02,30,8.20
2011,10,19,02,31,8.20
2011,10,19,02,32,8.20
2011,10,19,02,33,8.20
2011,10,19,02,34,8.20
2011,10,19,02,35,8.20
2011,10,19,02,36,8.20
2011,10,19,02,37,8.30
2011,10,19,02,38,8.30
2011,10,19,02,39,8.30
2011,10,19,02,40,8.30
2011,10,19,02,41,8.40
2011,10,19,02,42,8.40
2011,10,19,02,43,8.40
2011,10,19,02,44,8.40
2011,10,19,02,45,8.40
2011,10,19,02,46,8.40
2011,10,19,02,47,8.40
2011,10,19,02,48,8.40
2011,10,19,02,49,8.40
2011,10,19,02,50,8.40
2011,10,19,02,51,8.50
2011,10,19,02,52,8.50
2011,10,19,02,53,8.50
2011,10,19,02,54,8.50
2011,10,19,02,55,8.60
2011,10,19,02,56,8.60
2011,10,19,02,57,8.60
2011,10,19,02,58,8.60
2011,10,19,02,59,8.60
2011,10,19,03,00,8.60
2011,10,19,03,01,8.60
2011,10,19,03,02,8.60
2011,10,19,03,03,8.70
2011,10,19,03,04,8.70
2011,10,19,03,05,8.70
2011,10,19,03,06,8.70
2011,10,19,03,07,8.70
2011,10,19,03,08,8.70
2011,10,19,03,09,8.80
2011,10,19,03,10,8.80
2011,10,19,03,11,8.80
2011,10,19,03,12,8.80
2011,10,19,03,13,8.80
2011,10,19,03,14,8.80
2011,10,19,03,15,8.80
2011,10,19,03,16,8.80
2011,10,19,03,17,8.80
2011,10,19,03,18,8.80
2011,10,19,03,19,8.80
2011,10,19,03,20,8.80
2011,10,19,03,21,8.80
2011,10,19,03,22,8.80
2011,10,19,03,23,8.80
2011,10,19,03,24,8.80
2011,10,19,03,25,8.80
2011,10,19,03,26,8.80
2011,10,19,03,27,8.70
2011,10,19,03,28,8.70
2011,10,19,03,29,8.70
2011,10,19,03,30,8.70
2011,10,19,03,31,8.70
2011,10,19,03,32,8.70
2011,10,19,03,33,8.70
2011,10,19,03,34,8.70
2011,10,19,03,35,8.70
2011,10,19,03,36,8.70
2011,10,19,03,37,8.70
2011,10,19,03,38,8.70
2011,10,19,03,39,8.70
2011,10,19,03,40,8.70
2011,10,19,03,41,8.70
2011,10,19,03,42,8.70
2011,10,19,03,43,8.70
2011,10,19,03,44,8.60
2011,10,19,03,45,8.60
2011,10,19,03,46,8.60
2011,10,19,03,47,8.60
2011,10,19,03,48,8.60
2011,10,19,03,49,8.60
2011,10,19,03,50,8.60
2011,10,19,03,51,8.60
2011,10,19,03,52,8.60
2011,10,19,03,53,8.60
2011,10,19,03,54,8.50
2011,10,19,03,55,8.50
2011,10,19,03,56,8.50
2011,10,19,03,57,8.50
2011,10,19,03,58,8.50
2011,10,19,03,59,8.40
2011,10,19,04,00,8.40
2011,10,19,04,01,8.40
2011,10,19,04,02,8.40
2011,10,19,04,03,8.40
2011,10,19,04,04,8.40
2011,10,19,04,05,8.30
2011,10,19,04,06,8.30
2011,10,19,04,07,8.30
2011,10,19,04,08,8.30
2011,10,19,04,09,8.30
2011,10,19,04,10,8.30
2011,10,19,04,11,8.30
2011,10,19,04,12,8.30
2011,10,19,04,13,8.30
2011,10,19,04,14,8.20
2011,10,19,04,15,8.20
2011,10,19,04,16,8.20
2011,10,19,04,17,8.20
2011,10,19,04,18,8.20
2011,10,19,04,19,8.20
2011,10,19,04,20,8.20
2011,10,19,04,21,8.10
2011,10,19,04,22,8.10
2011,10,19,04,23,8.10
2011,10,19,04,24,8.10
2011,10,19,04,25,8.10
2011,10,19,04,26,8.10
2011,10,19,04,27,8.10
2011,10,19,04,28,8.10
2011,10,19,04,29,8.00
2011,10,19,04,30,8.00
2011,10,19,04,31,8.00
2011,10,19,04,32,8.00
2011,10,19,04,33,8.00
2011,10,19,04,34,8.00
2011,10,19,04,35,8.00
2011,10,19,04,36,7.90
2011,10,19,04,37,7.90
2011,10,19,04,38,7.90
2011,10,19,04,39,7.90
2011,10,19,04,40,7.90
2011,10,19,04,41,7.80
2011,10,19,04,42,7.80
2011,10,19,04,43,7.80
2011,10,19,04,44,7.80
2011,10,19,04,45,7.80
2011,10,19,04,46,7.80
2011,10,19,04,47,7.70
2011,10,19,04,48,7.70
2011,10,19,04,49,7.70
2011,10,19,04,50,7.70
2011,10,19,04,51,7.70
2011,10,19,04,52,7.70
2011,10,19,04,53,7.70
2011,10,19,04,54,7.70
2011,10,19,04,55,7.70
2011,10,19,04,56,7.60
2011,10,19,04,57,7.60
2011,10,19,04,58,7.60
2011,10,19,04,59,7.60
2011,10,19,05,00,7.50
2011,10,19,05,01,7.50
2011,10,19,05,02,7.50
2011,10,19,05,03,7.40
2011,10,19,05,04,7.40
2011,10,19,05,05,7.40
2011,10,19,05,06,7.40
2011,10,19,05,07,7.40
2011,10,19,05,08,7.30
2011,10,19,05,09,7.30
2011,10,19,05,10,7.30
2011,10,19,05,11,7.30
2011,10,19,05,12,7.30
2011,10,19,05,13,7.20
2011,10,19,05,14,7.20
2011,10,19,05,15,7.20
2011,10,19,05,16,7.20
2011,10,19,05,17,7.20
2011,10,19,05,18,7.10
2011,10,19,05,19,7.10
2011,10,19,05,20,7.10
2011,10,19,05,21,7.10
2011,10,19,05,22,7.10
2011,10,19,05,23,7.00
2011,10,19,05,24,7.00
2011,10,19,05,25,7.00
2011,10,19,05,26,7.00
2011,10,19,05,27,7.00
2011,10,19,05,28,7.00
2011,10,19,05,29,7.00
2011,10,19,05,30,7.00
2011,10,19,05,31,7.00
2011,10,19,05,32,7.00
2011,10,19,05,33,6.90
2011,10,19,05,34,6.90
2011,10,19,05,35,6.90
2011,10,19,05,36,6.90
2011,10,19,05,37,6.90
2011,10,19,05,38,6.90
2011,10,19,05,39,6.90
2011,10,19,05,40,6.90
2011,10,19,05,41,6.80
2011,10,19,05,42,6.80
2011,10,19,05,43,6.80
2011,10,19,05,44,6.80
2011,10,19,05,45,6.80
2011,10,19,05,46,6.80
2011,10,19,05,47,6.80
2011,10,19,05,48,6.80
2011,10,19,05,49,6.80
2011,10,19,05,50,6.80
2011,10,19,05,51,6.80
2011,10,19,05,52,6.80
2011,10,19,05,53,6.70
2011,10,19,05,54,6.70
2011,10,19,05,55,6.70
2011,10,19,05,56,6.70
2011,10,19,05,57,6.70
2011,10,19,05,58,6.70
2011,10,19,05,59,6.70
2011,10,19,06,00,6.70
2011,10,19,06,01,6.70
2011,10,19,06,02,6.70
2011,10,19,06,03,6.60
2011,10,19,06,04,6.60
2011,10,19,06,05,6.60
2011,10,19,06,06,6.60
2011,10,19,06,07,6.60
2011,10,19,06,08,6.60
2011,10,19,06,09,6.60
2011,10,19,06,10,6.60
2011,10,19,06,11,6.60
2011,10,19,06,12,6.50
2011,10,19,06,13,6.50
2011,10,19,06,14,6.50
2011,10,19,06,15,6.50
2011,10,19,06,16,6.50
2011,10,19,06,17,6.40
2011,10,19,06,18,6.40
2011,10,19,06,19,6.40
2011,10,19,06,20,6.40
2011,10,19,06,21,6.40
2011,10,19,06,22,6.40
2011,10,19,06,23,6.40
2011,10,19,06,24,6.30
2011,10,19,06,25,6.30
2011,10,19,06,26,6.30
2011,10,19,06,27,6.30
2011,10,19,06,28,6.30
2011,10,19,06,29,6.30
2011,10,19,06,30,6.30
2011,10,19,06,31,6.30
2011,10,19,06,32,6.30
2011,10,19,06,33,6.30
2011,10,19,06,34,6.30
2011,10,19,06,35,6.30
2011,10,19,06,36,6.30
2011,10,19,06,37,6.30
2011,10,19,06,38,6.20
2011,10,19,06,39,6.20
2011,10,19,06,40,6.20
2011,10,19,06,41,6.20
2011,10,19,06,42,6.20
2011,10,19,06,43,6.20
2011,10,19,06,44,6.30
2011,10,19,06,45,6.30
2011,10,19,06,46,6.20
2011,10,19,06,47,6.20
2011,10,19,06,48,6.20
2011,10,19,06,49,6.20
2011,10,19,06,50,6.20
2011,10,19,06,51,6.20
2011,10,19,06,52,6.20
2011,10,19,06,53,6.20
2011,10,19,06,54,6.20
2011,10,19,06,55,6.20
2011,10,19,06,56,6.20
2011,10,19,06,57,6.20
2011,10,19,06,58,6.20
2011,10,19,06,59,6.10
2011,10,19,07,00,6.10
2011,10,19,07,01,6.10
2011,10,19,07,02,6.10
2011,10,19,07,03,6.20
2011,10,19,07,04,6.20
2011,10,19,07,05,6.20
2011,10,19,07,06,6.10
2011,10,19,07,07,6.10
2011,10,19,07,08,6.10
2011,10,19,07,09,6.10
2011,10,19,07,10,6.10
2011,10,19,07,11,6.10
2011,10,19,07,12,6.10
2011,10,19,07,13,6.10
2011,10,19,07,14,6.10
2011,10,19,07,15,6.10
2011,10,19,07,16,6.10
2011,10,19,07,17,6.10
2011,10,19,07,18,6.10
2011,10,19,07,19,6.10
2011,10,19,07,20,6.10
2011,10,19,07,21,6.10
2011,10,19,07,22,6.10
2011,10,19,07,23,6.10
2011,10,19,07,24,6.10
2011,10,19,07,25,6.10
2011,10,19,07,26,6.10
2011,10,19,07,27,6.10
2011,10,19,07,28,6.10
2011,10,19,07,29,6.10
2011,10,19,07,30,6.10
2011,10,19,07,31,6.10
2011,10,19,07,32,6.10
2011,10,19,07,33,6.10
2011,10,19,07,34,6.10
2011,10,19,07,35,6.10
2011,10,19,07,36,6.10
2011,10,19,07,37,6.10
2011,10,19,07,38,6.10
2011,10,19,07,39,6.10
2011,10,19,07,40,6.10
2011,10,19,07,41,6.10
2011,10,19,07,42,6.10
2011,10,19,07,43,6.10
2011,10,19,07,44,6.10
2011,10,19,07,45,6.10
2011,10,19,07,46,6.10
2011,10,19,07,47,6.10
2011,10,19,07,48,6.10
2011,10,19,07,49,6.10
2011,10,19,07,50,6.10
2011,10,19,07,51,6.10
2011,10,19,07,52,6.10
2011,10,19,07,53,6.10
2011,10,19,07,54,6.10
2011,10,19,07,55,6.10
2011,10,19,07,56,6.10
2011,10,19,07,57,6.10
2011,10,19,07,58,6.10
2011,10,19,07,59,6.10
2011,10,19,08,00,6.10
2011,10,19,08,01,6.10
2011,10,19,08,02,6.10
2011,10,19,08,03,6.10
2011,10,19,08,04,6.10
2011,10,19,08,05,6.20
2011,10,19,08,06,6.10
2011,10,19,08,07,6.20
2011,10,19,08,08,6.20
2011,10,19,08,09,6.20
2011,10,19,08,10,6.20
2011,10,19,08,11,6.20
2011,10,19,08,12,6.20
2011,10,19,08,13,6.20
2011,10,19,08,14,6.20
2011,10,19,08,15,6.20
2011,10,19,08,16,6.20
2011,10,19,08,17,6.20
2011,10,19,08,18,6.20
2011,10,19,08,19,6.20
2011,10,19,08,20,6.30
2011,10,19,08,21,6.30
2011,10,19,08,22,6.30
2011,10,19,08,23,6.30
2011,10,19,08,24,6.30
2011,10,19,08,25,6.40
2011,10,19,08,26,6.40
2011,10,19,08,27,6.40
2011,10,19,08,28,6.40
2011,10,19,08,29,6.40
2011,10,19,08,30,6.50
2011,10,19,08,31,6.50
2011,10,19,08,32,6.50
2011,10,19,08,33,6.60
2011,10,19,08,34,6.60
2011,10,19,08,35,6.60
2011,10,19,08,36,6.60
2011,10,19,08,37,6.60
2011,10,19,08,38,6.60
2011,10,19,08,39,6.60
2011,10,19,08,40,6.60
2011,10,19,08,41,6.60
2011,10,19,08,42,6.60
2011,10,19,08,43,6.70
2011,10,19,08,44,6.70
2011,10,19,08,45,6.70
2011,10,19,08,46,6.80
2011,10,19,08,47,6.80
2011,10,19,08,48,6.90
2011,10,19,08,49,6.90
2011,10,19,08,50,7.00
2011,10,19,08,51,7.00
2011,10,19,08,52,7.10
2011,10,19,08,53,7.10
2011,10,19,08,54,7.10
2011,10,19,08,55,7.10
2011,10,19,08,56,7.20
2011,10,19,08,57,7.20
2011,10,19,08,58,7.20
2011,10,19,08,59,7.20
2011,10,19,09,00,7.20
2011,10,19,09,01,7.20
2011,10,19,09,02,7.30
2011,10,19,09,03,7.30
2011,10,19,09,04,7.30
2011,10,19,09,05,7.30
2011,10,19,09,06,7.40
2011,10,19,09,07,7.40
2011,10,19,09,08,7.40
2011,10,19,09,09,7.40
2011,10,19,09,10,7.50
2011,10,19,09,11,7.50
2011,10,19,09,12,7.60
2011,10,19,09,13,7.60
2011,10,19,09,14,7.60
2011,10,19,09,15,7.70
2011,10,19,09,16,7.70
2011,10,19,09,17,7.70
2011,10,19,09,18,7.80
2011,10,19,09,19,7.80
2011,10,19,09,20,7.90
2011,10,19,09,21,7.90
2011,10,19,09,22,8.00
2011,10,19,09,23,8.10
2011,10,19,09,24,8.20
2011,10,19,09,25,8.30
2011,10,19,09,26,8.40
2011,10,19,09,27,8.60
2011,10,19,09,28,8.70
2011,10,19,09,29,8.80
2011,10,19,09,30,8.90
2011,10,19,09,31,9.00
2011,10,19,09,32,9.20
2011,10,19,09,33,9.30
2011,10,19,09,34,9.40
2011,10,19,09,35,9.50
2011,10,19,09,36,9.60
2011,10,19,09,37,9.70
2011,10,19,09,38,9.80
2011,10,19,09,39,9.80
2011,10,19,09,40,9.90
2011,10,19,09,41,9.90
2011,10,19,09,42,10.00
2011,10,19,09,43,10.10
2011,10,19,09,44,10.10
2011,10,19,09,45,10.10
2011,10,19,09,46,10.20
2011,10,19,09,47,10.20
2011,10,19,09,48,10.30
2011,10,19,09,49,10.30
2011,10,19,09,50,10.40
2011,10,19,09,51,10.40
2011,10,19,09,52,10.50
2011,10,19,09,53,10.60
2011,10,19,09,54,10.70
2011,10,19,09,55,10.80
2011,10,19,09,56,10.80
2011,10,19,09,57,10.90
2011,10,19,09,58,10.90
2011,10,19,09,59,10.90
2011,10,19,10,00,11.00
2011,10,19,10,01,11.00
2011,10,19,10,02,11.00
2011,10,19,10,03,11.00
2011,10,19,10,04,11.10
2011,10,19,10,05,11.10
2011,10,19,10,06,11.10
2011,10,19,10,07,11.10
2011,10,19,10,08,11.20
2011,10,19,10,09,11.20
2011,10,19,10,10,11.30
2011,10,19,10,11,11.30
2011,10,19,10,12,11.40
2011,10,19,10,13,11.50
2011,10,19,10,14,11.60
2011,10,19,10,15,11.60
2011,10,19,10,16,11.70
2011,10,19,10,17,11.80
2011,10,19,10,18,11.80
2011,10,19,10,19,11.90
2011,10,19,10,20,12.00
2011,10,19,10,21,12.10
2011,10,19,10,22,12.10
2011,10,19,10,23,12.20
2011,10,19,10,24,12.30
2011,10,19,10,25,12.30
2011,10,19,10,26,12.40
2011,10,19,10,27,12.40
2011,10,19,10,28,12.50
2011,10,19,10,29,12.60
2011,10,19,10,30,12.70
2011,10,19,10,31,12.70
2011,10,19,10,32,12.80
2011,10,19,10,33,12.90
2011,10,19,10,34,12.90
2011,10,19,10,35,13.00
2011,10,19,10,36,13.00
2011,10,19,10,37,13.10
2011,10,19,10,38,13.10
2011,10,19,10,39,13.20
2011,10,19,10,40,13.20
2011,10,19,10,41,13.30
2011,10,19,10,42,13.30
2011,10,19,10,43,13.40
2011,10,19,10,44,13.50
2011,10,19,10,45,13.50
2011,10,19,10,46,13.60
2011,10,19,10,47,13.60
2011,10,19,10,48,13.70
2011,10,19,10,49,13.70
2011,10,19,10,50,13.70
2011,10,19,10,51,13.70
2011,10,19,10,52,13.70
2011,10,19,10,53,13.70
2011,10,19,10,54,13.80
2011,10,19,10,55,13.80
2011,10,19,10,56,13.80
2011,10,19,10,57,13.80
2011,10,19,10,58,13.80
2011,10,19,10,59,13.70
2011,10,19,11,00,13.60
2011,10,19,11,01,13.50
2011,10,19,11,02,13.30
2011,10,19,11,03,13.20
2011,10,19,11,04,13.10
2011,10,19,11,05,13.00
2011,10,19,11,06,12.90
2011,10,19,11,07,12.90
2011,10,19,11,08,12.80
2011,10,19,11,09,12.80
2011,10,19,11,10,12.80
2011,10,19,11,11,12.90
2011,10,19,11,12,12.90
2011,10,19,11,13,12.90
2011,10,19,11,14,12.90
2011,10,19,11,15,12.90
2011,10,19,11,16,12.90
2011,10,19,11,17,12.90
2011,10,19,11,18,12.90
2011,10,19,11,19,12.90
2011,10,19,11,20,12.90
2011,10,19,11,21,12.90
2011,10,19,11,22,12.90
2011,10,19,11,23,12.90
2011,10,19,11,24,12.90
2011,10,19,11,25,13.00
2011,10,19,11,26,13.00
2011,10,19,11,27,13.10
2011,10,19,11,28,13.10
2011,10,19,11,29,13.20
2011,10,19,11,30,13.20
2011,10,19,11,31,13.20
2011,10,19,11,32,13.30
2011,10,19,11,33,13.30
2011,10,19,11,34,13.40
2011,10,19,11,35,13.40
2011,10,19,11,36,13.40
2011,10,19,11,37,13.40
2011,10,19,11,38,13.40
2011,10,19,11,39,13.30
2011,10,19,11,40,13.30
2011,10,19,11,41,13.30
2011,10,19,11,42,13.30
2011,10,19,11,43,13.30
2011,10,19,11,44,13.20
2011,10,19,11,45,13.20
2011,10,19,11,46,13.20
2011,10,19,11,47,13.20
2011,10,19,11,48,13.20
2011,10,19,11,49,13.20
2011,10,19,11,50,13.20
2011,10,19,11,51,13.20
2011,10,19,11,52,13.20
2011,10,19,11,53,13.20
2011,10,19,11,54,13.20
2011,10,19,11,55,13.20
2011,10,19,11,56,13.20
2011,10,19,11,57,13.20
2011,10,19,11,58,13.20
2011,10,19,11,59,13.30
2011,10,19,12,00,13.30
2011,10,19,12,01,13.30
2011,10,19,12,02,13.30
2011,10,19,12,03,13.30
2011,10,19,12,04,13.30
2011,10,19,12,05,13.30
2011,10,19,12,06,13.30
2011,10,19,12,07,13.30
2011,10,19,12,08,13.30
2011,10,19,12,09,13.30
2011,10,19,12,10,13.30
2011,10,19,12,11,13.20
2011,10,19,12,12,13.20
2011,10,19,12,13,13.20
2011,10,19,12,14,13.10
2011,10,19,12,15,13.10
2011,10,19,12,16,13.10
2011,10,19,12,17,13.00
2011,10,19,12,18,13.00
2011,10,19,12,19,12.90
2011,10,19,12,20,12.80
2011,10,19,12,21,12.70
2011,10,19,12,22,12.70
2011,10,19,12,23,12.60
2011,10,19,12,24,12.60
2011,10,19,12,25,12.60
2011,10,19,12,26,12.60
2011,10,19,12,27,12.60
2011,10,19,12,28,12.60
2011,10,19,12,29,12.60
2011,10,19,12,30,12.60
2011,10,19,12,31,12.60
2011,10,19,12,32,12.70
2011,10,19,12,33,12.70
2011,10,19,12,34,12.80
2011,10,19,12,35,12.80
2011,10,19,12,36,12.80
2011,10,19,12,37,12.80
2011,10,19,12,38,12.80
2011,10,19,12,39,12.70
2011,10,19,12,40,12.70
2011,10,19,12,41,12.70
2011,10,19,12,42,12.70
2011,10,19,12,43,12.70
2011,10,19,12,44,12.70
2011,10,19,12,45,12.80
2011,10,19,12,46,12.80
2011,10,19,12,47,12.80
2011,10,19,12,48,12.90
2011,10,19,12,49,13.00
2011,10,19,12,50,13.00
2011,10,19,12,51,13.10
2011,10,19,12,52,13.10
2011,10,19,12,53,13.10
2011,10,19,12,54,13.10
2011,10,19,12,55,13.00
2011,10,19,12,56,13.00
2011,10,19,12,57,13.00
2011,10,19,12,58,13.00
2011,10,19,12,59,12.90
2011,10,19,13,00,12.90
2011,10,19,13,01,12.90
2011,10,19,13,02,12.90
2011,10,19,13,03,12.80
2011,10,19,13,04,12.90
2011,10,19,13,05,12.90
2011,10,19,13,06,12.80
2011,10,19,13,07,12.80
2011,10,19,13,08,12.80
2011,10,19,13,09,12.80
2011,10,19,13,10,12.80
2011,10,19,13,11,12.80
2011,10,19,13,12,12.80
2011,10,19,13,13,12.70
2011,10,19,13,14,12.70
2011,10,19,13,15,12.70
2011,10,19,13,16,12.70
2011,10,19,13,17,12.60
2011,10,19,13,18,12.70
2011,10,19,13,19,12.70
2011,10,19,13,20,12.70
2011,10,19,13,21,12.70
2011,10,19,13,22,12.70
2011,10,19,13,23,12.70
2011,10,19,13,24,12.70
2011,10,19,13,25,12.70
2011,10,19,13,26,12.70
2011,10,19,13,27,12.70
2011,10,19,13,28,12.70
2011,10,19,13,29,12.70
2011,10,19,13,30,12.70
2011,10,19,13,31,12.70
2011,10,19,13,32,12.70
2011,10,19,13,33,12.70
2011,10,19,13,34,12.70
2011,10,19,13,35,12.70
2011,10,19,13,36,12.70
2011,10,19,13,37,12.70
2011,10,19,13,38,12.60
2011,10,19,13,39,12.60
2011,10,19,13,40,12.50
2011,10,19,13,41,12.50
2011,10,19,13,42,12.50
2011,10,19,13,43,12.40
2011,10,19,13,44,12.40
2011,10,19,13,45,12.40
2011,10,19,13,46,12.50
2011,10,19,13,47,12.50
2011,10,19,13,48,12.50
2011,10,19,13,49,12.50
2011,10,19,13,50,12.60
2011,10,19,13,51,12.60
2011,10,19,13,52,12.70
2011,10,19,13,53,12.70
2011,10,19,13,54,12.80
2011,10,19,13,55,12.80
2011,10,19,13,56,12.80
2011,10,19,13,57,12.90
2011,10,19,13,58,13.00
2011,10,19,13,59,13.10
2011,10,19,14,00,13.10
2011,10,19,14,01,13.20
2011,10,19,14,02,13.30
2011,10,19,14,03,13.40
2011,10,19,14,04,13.40
2011,10,19,14,05,13.50
2011,10,19,14,06,13.50
2011,10,19,14,07,13.60
2011,10,19,14,08,13.60
2011,10,19,14,09,13.70
2011,10,19,14,10,13.80
2011,10,19,14,11,13.90
2011,10,19,14,12,14.00
2011,10,19,14,13,14.10
2011,10,19,14,14,14.20
2011,10,19,14,15,14.30
2011,10,19,14,16,14.50
2011,10,19,14,17,14.60
2011,10,19,14,18,14.70
2011,10,19,14,19,14.90
2011,10,19,14,20,15.10
2011,10,19,14,21,15.40
2011,10,19,14,22,15.60
2011,10,19,14,23,15.80
2011,10,19,14,24,16.00
2011,10,19,14,25,16.20
2011,10,19,14,26,16.40
2011,10,19,14,27,16.50
2011,10,19,14,28,16.60
2011,10,19,14,29,16.80
2011,10,19,14,30,16.80
2011,10,19,14,31,16.90
2011,10,19,14,32,17.00
2011,10,19,14,33,17.10
2011,10,19,14,34,17.10
2011,10,19,14,35,17.20
2011,10,19,14,36,17.20
2011,10,19,14,37,17.20
2011,10,19,14,38,17.30
2011,10,19,14,39,17.30
2011,10,19,14,40,17.30
2011,10,19,14,41,17.40
2011,10,19,14,42,17.40
2011,10,19,14,43,17.40
2011,10,19,14,44,17.50
2011,10,19,14,45,17.50
2011,10,19,14,46,17.50
2011,10,19,14,47,17.60
2011,10,19,14,48,17.60
2011,10,19,14,49,17.50
2011,10,19,14,50,17.60
2011,10,19,14,51,17.60
2011,10,19,14,52,17.60
2011,10,19,14,53,17.60
2011,10,19,14,54,17.60
2011,10,19,14,55,17.60
2011,10,19,14,56,17.60
2011,10,19,14,57,17.60
2011,10,19,14,58,17.60
2011,10,19,14,59,17.60
2011,10,19,15,00,17.60
2011,10,19,15,01,17.60
2011,10,19,15,02,17.60
2011,10,19,15,03,17.60
2011,10,19,15,04,17.60
2011,10,19,15,05,17.50
2011,10,19,15,06,17.50
2011,10,19,15,07,17.40
2011,10,19,15,08,17.30
2011,10,19,15,09,17.20
2011,10,19,15,10,17.10
2011,10,19,15,11,17.10
2011,10,19,15,12,17.00
2011,10,19,15,13,16.90
2011,10,19,15,14,16.90
2011,10,19,15,15,16.80
2011,10,19,15,16,16.70
2011,10,19,15,17,16.60
2011,10,19,15,18,16.50
2011,10,19,15,19,16.50
2011,10,19,15,20,16.40
2011,10,19,15,21,16.40
2011,10,19,15,22,16.40
2011,10,19,15,23,16.30
2011,10,19,15,24,16.30
2011,10,19,15,25,16.30
2011,10,19,15,26,16.30
2011,10,19,15,27,16.20
2011,10,19,15,28,16.20
2011,10,19,15,29,16.20
2011,10,19,15,30,16.20
2011,10,19,15,31,16.10
2011,10,19,15,32,16.10
2011,10,19,15,33,16.10
2011,10,19,15,34,16.00
2011,10,19,15,35,16.00
2011,10,19,15,36,16.00
2011,10,19,15,37,16.00
2011,10,19,15,38,16.00
2011,10,19,15,39,16.00
2011,10,19,15,40,16.10
2011,10,19,15,41,16.10
2011,10,19,15,42,16.10
2011,10,19,15,43,16.10
2011,10,19,15,44,16.10
2011,10,19,15,45,16.20
2011,10,19,15,46,16.20
2011,10,19,15,47,16.20
2011,10,19,15,48,16.20
2011,10,19,15,49,16.30
2011,10,19,15,50,16.30
2011,10,19,15,51,16.30
2011,10,19,15,52,16.30
2011,10,19,15,53,16.30
2011,10,19,15,54,16.30
2011,10,19,15,55,16.30
2011,10,19,15,56,16.30
2011,10,19,15,57,16.30
2011,10,19,15,58,16.30
2011,10,19,15,59,16.30
2011,10,19,16,00,16.30
2011,10,19,16,01,16.30
2011,10,19,16,02,16.30
2011,10,19,16,03,16.30
2011,10,19,16,04,16.30
2011,10,19,16,05,16.30
2011,10,19,16,06,16.30
2011,10,19,16,07,16.30
2011,10,19,16,08,16.30
2011,10,19,16,09,16.30
2011,10,19,16,10,16.30
2011,10,19,16,11,16.30
2011,10,19,16,12,16.30
2011,10,19,16,13,16.30
2011,10,19,16,14,16.20
2011,10,19,16,15,16.20
2011,10,19,16,16,16.20
2011,10,19,16,17,16.10
2011,10,19,16,18,16.10
2011,10,19,16,19,16.10
2011,10,19,16,20,16.10
2011,10,19,16,21,16.10
2011,10,19,16,22,16.00
2011,10,19,16,23,16.00
2011,10,19,16,24,16.00
2011,10,19,16,25,16.00
2011,10,19,16,26,15.90
2011,10,19,16,27,15.90
2011,10,19,16,28,16.00
2011,10,19,16,29,15.90
2011,10,19,16,30,15.90
2011,10,19,16,31,15.90
2011,10,19,16,32,15.90
2011,10,19,16,33,15.90
2011,10,19,16,34,15.80
2011,10,19,16,35,15.80
2011,10,19,16,36,15.70
2011,10,19,16,37,15.70
2011,10,19,16,38,15.70
2011,10,19,16,39,15.60
2011,10,19,16,40,15.50
2011,10,19,16,41,15.50
2011,10,19,16,42,15.40
2011,10,19,16,43,15.40
2011,10,19,16,44,15.30
2011,10,19,16,45,15.30
2011,10,19,16,46,15.20
2011,10,19,16,47,15.20
2011,10,19,16,48,15.20
2011,10,19,16,49,15.20
2011,10,19,16,50,15.10
2011,10,19,16,51,15.10
2011,10,19,16,52,15.10
2011,10,19,16,53,15.00
2011,10,19,16,54,15.00
2011,10,19,16,55,14.90
2011,10,19,16,56,14.90
2011,10,19,16,57,14.90
2011,10,19,16,58,14.80
2011,10,19,16,59,14.80
2011,10,19,17,00,14.80
2011,10,19,17,01,14.70
2011,10,19,17,02,14.70
2011,10,19,17,03,14.70
2011,10,19,17,04,14.60
2011,10,19,17,05,14.60
2011,10,19,17,06,14.60
2011,10,19,17,07,14.60
2011,10,19,17,08,14.60
2011,10,19,17,09,14.60
2011,10,19,17,10,14.60
2011,10,19,17,11,14.50
2011,10,19,17,12,14.50
2011,10,19,17,13,14.50
2011,10,19,17,14,14.50
2011,10,19,17,15,14.40
2011,10,19,17,16,14.50
2011,10,19,17,17,14.50
2011,10,19,17,18,14.50
2011,10,19,17,19,14.50
2011,10,19,17,20,14.50
2011,10,19,17,21,14.50
2011,10,19,17,22,14.60
2011,10,19,17,23,14.60
2011,10,19,17,24,14.60
2011,10,19,17,25,14.60
2011,10,19,17,26,14.70
2011,10,19,17,27,14.70
2011,10,19,17,28,14.70
2011,10,19,17,29,14.70
2011,10,19,17,30,14.80
2011,10,19,17,31,14.80
2011,10,19,17,32,14.80
2011,10,19,17,33,14.80
2011,10,19,17,34,14.70
2011,10,19,17,35,14.80
2011,10,19,17,36,14.70
2011,10,19,17,37,14.70
2011,10,19,17,38,14.70
2011,10,19,17,39,14.70
2011,10,19,17,40,14.60
2011,10,19,17,41,14.60
2011,10,19,17,42,14.60
2011,10,19,17,43,14.60
2011,10,19,17,44,14.60